Weather History for Hurlburt Field, FL

Change the Weather History Date:

Monday, July 1, 2013

  Actual Average Record
Temperature  
Mean Temperature 78 °F -  
Max Temperature 88 °F 86 °F 95 °F (2014)
Min Temperature 69 °F 72 °F 66 °F (2008)
Cooling Degree Days 13    
Growing Degree Days 28 (Base 50)    
Moisture  
Dew Point 69 °F    
Average Humidity 69    
Maximum Humidity 94    
Minimum Humidity 51    
Precipitation  
Precipitation 0.00 in - - ()
Sea Level Pressure  
Sea Level Pressure 29.83 in    
Wind  
Wind Speed 4 mph (SW)    
Max Wind Speed 13 mph    
Max Gust Speed -    
Visibility 10 miles    
Events      
Averages and records for this station are not official NWS values.
T = Trace of Precipitation, MM = Missing Value Source: NWS Daily Summary

Daily Weather History Graph

Daily Weather History Graph

Search for Another Location

Airport:

Trip Planner

Search our weather history database for the weather conditions in past years. The results will help you decide how hot, cold, wet, or windy it might be!

Date:

Astronomy

Jul. 01, 2013 Rise Set
Actual Time 5:48 AM CDT 7:52 PM CDT
Civil Twilight 5:20 AM CDT 8:20 PM CDT
Nautical Twilight 4:47 AM CDT 8:53 PM CDT
Astronomical Twilight 4:11 AM CDT 9:29 PM CDT
Moon 1:02 AM CDT (7/1) 2:20 PM CDT (7/1)
Length of Visible Light 14h 59m
Length of Day
14h 04m
Waning Crescent, 35% of the Moon is Illuminated
Jul 1
Waning Crescent
Jul 8
New
Jul 15
First Quarter
Jul 22
Full
Jul 29
Last Quarter

Hourly Weather History & Observations

Time (CDT) Temp. Heat Index Dew Point Humidity Pressure Visibility Wind Dir Wind Speed Gust Speed Precip Events Conditions
12:58 AM 71.1 °F - 68.0 °F 90% 29.78 in 10.0 mi North 1.2 mph - N/A   Clear
1:58 AM 69.4 °F - 66.9 °F 92% 29.77 in 10.0 mi North 1.2 mph - N/A   Clear
2:58 AM 69.4 °F - 67.1 °F 92% 29.77 in 10.0 mi NE 2.3 mph - N/A   Mostly Cloudy
3:58 AM 70.5 °F - 68.0 °F 92% 29.78 in 10.0 mi Calm Calm - N/A   Mostly Cloudy
4:58 AM 71.1 °F - 68.0 °F 90% 29.79 in 10.0 mi North 2.3 mph - N/A   Mostly Cloudy
5:58 AM 70.3 °F - 67.6 °F 91% 29.79 in 10.0 mi NNW 2.3 mph - N/A   Partly Cloudy
6:55 AM 73.4 °F - 71.6 °F 94% 29.80 in 10.0 mi Calm Calm - N/A   Mostly Cloudy
7:55 AM 82.4 °F 87.2 °F 71.6 °F 70% 29.82 in 10.0 mi Calm Calm - N/A   Partly Cloudy
8:55 AM 86.0 °F 93.4 °F 73.4 °F 66% 29.82 in 10.0 mi West 6.9 mph - N/A   Partly Cloudy
8:58 AM 85.1 °F 92.2 °F 73.6 °F 68% 29.82 in 10.0 mi SW 8.1 mph - N/A   Clear
9:58 AM 85.8 °F 90.8 °F 70.5 °F 60% 29.84 in 10.0 mi SW 8.1 mph - N/A   Clear
10:58 AM 85.3 °F 90.4 °F 70.7 °F 62% 29.85 in 10.0 mi SW 6.9 mph - N/A   Clear
11:58 AM 86.5 °F 89.6 °F 67.6 °F 53% 29.84 in 10.0 mi SSW 8.1 mph - N/A   Partly Cloudy
12:58 PM 87.8 °F 93.8 °F 71.4 °F 58% 29.83 in 10.0 mi South 10.4 mph - N/A   Partly Cloudy
1:06 PM 87.8 °F 92.6 °F 69.8 °F 55% 29.82 in 10.0 mi South 10.4 mph - N/A   Light Drizzle
1:15 PM 87.8 °F 93.8 °F 71.6 °F 58% 29.82 in 10.0 mi SW 10.4 mph - N/A   Scattered Clouds
1:58 PM 87.6 °F 92.7 °F 70.0 °F 56% 29.82 in 10.0 mi SSW 11.5 mph - 0.00 in   Clear
2:58 PM 86.7 °F 90.6 °F 68.7 °F 55% 29.82 in 10.0 mi SW 11.5 mph - N/A   Clear
3:58 PM 86.9 °F 89.6 °F 66.9 °F 51% 29.82 in 10.0 mi SW 12.7 mph - N/A   Clear
4:58 PM 86.0 °F 88.8 °F 67.1 °F 53% 29.82 in 10.0 mi SW 9.2 mph - N/A   Clear
5:58 PM 84.2 °F 87.3 °F 68.2 °F 58% 29.83 in 10.0 mi SW 8.1 mph - N/A   Clear
6:58 PM 83.5 °F 87.2 °F 69.3 °F 62% 29.84 in 10.0 mi SW 6.9 mph - N/A   Clear
7:58 PM 81.9 °F 84.8 °F 68.4 °F 63% 29.86 in 10.0 mi SW 5.8 mph - N/A   Clear
8:58 PM 81.1 °F 84.4 °F 69.1 °F 67% 29.88 in 10.0 mi SW 4.6 mph - N/A   Clear
9:58 PM 81.0 °F 84.1 °F 69.1 °F 67% 29.89 in 10.0 mi SW 5.8 mph - N/A   Clear
10:58 PM 80.8 °F 83.3 °F 67.5 °F 64% 29.90 in 10.0 mi SSW 4.6 mph - N/A   Scattered Clouds
11:58 PM 80.2 °F 83.1 °F 68.7 °F 68% 29.91 in 10.0 mi SSW 3.5 mph - N/A   Scattered Clouds